Location: Ladrillo (historical)
(32.8195°N, 117.2231°W)
Time: 12:02:36
(UTC+00:00)

YAOGAN 6 - Pass Details

Date: 26 May 2022
Orbit: 460 x 493 km, 97.1° (Epoch: 01 July)

Event Time Altitude Azimuth Distance (km) Brightness Sun altitude
Rises 12:08:18 0° 14° (NNE) 2,551 7.0 -7.4°
Reaches altitude 10° 12:10:22 10° 17° (NNE) 1,672 6.1 -7.0°
Maximum altitude 12:13:57 68° 100° (E) 529 3.0 -6.3°
Drops below altitude 10° 12:17:33 10° 184° (S) 1,675 5.0 -5.7°
Sets 12:19:37 0° 187° (S) 2,555 5.9 -5.3°
